Location: Martz Observatory
(42.0083°N, 79.0667°W)
Time: 13:08:01
(UTC-04:00)

Cosmos 1610 Rocket - Pass Details

Date: 26 May 2018
Orbit: 954 x 1002 km, 82.9° (Epoch: 14 October)

Event Time Altitude Azimuth Distance (km) Brightness Sun altitude
Rises 03:58:43 0° 350° (N) 3,735 8.2 -16.2°
Reaches altitude 10° 04:01:16 10° 350° (N) 2,780 7.4 -15.9°
Maximum altitude 04:07:39 78° 265° (W) 1,021 4.5 -15.1°
Drops below altitude 10° 04:13:56 10° 180° (S) 2,738 6.4 -14.3°
Enters shadow 04:14:12 - 180° (S) 2,840 6.5 -14.3°
